This is the latest recevied weather packets stored in our database for station/object K4WCH. If no packets are shown the sender has not sent any weather packets the latest 10 day(s).
| Time | Temp. | Humidity | Pressure | Rain* | Wind** | Luminosity | Snow |
|---|---|---|---|---|---|---|---|
| 1788123957 | 27.22° C | 86% | 1016.5 hPa | 0 mm | - | 203 W/m² | - |
| 1788123656 | 27.22° C | 85% | 1016.7 hPa | 0 mm | - | 201 W/m² | - |
| 1788123353 | 27.22° C | 84% | 1016.8 hPa | 0 mm | - | 198 W/m² | - |
| 1788123050 | 27.22° C | 85% | 1016.9 hPa | 0 mm | - | 192 W/m² | - |
| 1788122749 | 27.22° C | 86% | 1016.8 hPa | 0 mm | - | 184 W/m² | - |
| 1788122448 | 27.78° C | 86% | 1016.8 hPa | 0 mm | - | 175 W/m² | - |
| 1788122145 | 27.78° C | 89% | 1016.9 hPa | 0 mm | - | 176 W/m² | - |
| 1788121845 | 27.22° C | 89% | 1016.7 hPa | 0 mm | - | 184 W/m² | - |
| 1788121545 | 27.22° C | 89% | 1016.9 hPa | 0 mm | - | 186 W/m² | - |
| 1788121240 | 27.22° C | 90% | 1016.8 hPa | 0 mm | - | 186 W/m² | - |
| 1788120940 | 26.67° C | 90% | 1016.8 hPa | 0 mm | - | 192 W/m² | - |
| 1788120635 | 26.67° C | 89% | 1017 hPa | 0 mm | - | 194 W/m² | - |
| 1788120330 | 26.67° C | 89% | 1016.9 hPa | 0 mm | - | 194 W/m² | - |
| 1788120029 | 26.67° C | 89% | 1017.1 hPa | 0 mm | - | 192 W/m² | - |
| 1788119725 | 26.67° C | 91% | 1017.3 hPa | 0 mm | - | 188 W/m² | - |
| 1788119422 | 26.67° C | 91% | 1017.2 hPa | 0 mm | - | 192 W/m² | - |
| 1788119123 | 26.67° C | 89% | 1017.4 hPa | 0 mm | - | 200 W/m² | - |
| 1788118822 | 26.11° C | 89% | 1017.3 hPa | 0 mm | - | 206 W/m² | - |
| 1788118522 | 26.11° C | 91% | 1017.6 hPa | 0 mm | - | 215 W/m² | - |
| 1788118217 | 25.56° C | 91% | 1017.8 hPa | 0.51 mm | - | 216 W/m² | - |
| 1788117912 | 25.56° C | 92% | 1017.7 hPa | 0.51 mm | - | 217 W/m² | - |
| 1788117607 | 25.56° C | 93% | 1017.7 hPa | 0 mm | - | 213 W/m² | - |
| 1788117308 | 25.56° C | 92% | 1017.7 hPa | 0 mm | - | 206 W/m² | - |
| 1788117003 | 25.56° C | 91% | 1017.8 hPa | 0 mm | - | 196 W/m² | - |
| 1788116698 | 25.56° C | 94% | 1017.7 hPa | 0 mm | - | 178 W/m² | - |
* Rain latest hour (hover to see other rain measurements)
** Current wind speed in m/s (hover to see current wind gust speed)